Regional Weather Roundup
Issued by NWS Cleveland, OH

Home | Current Version | Previous Version | Graphics & Text | Print | Product List | Glossary On
Versions: 1 2 3 4 5 6 7 8 9 10 11 12 13 14 15 16 17 18 19 20 21 22 23 24 25 26 27 28 29 30 31 32 33 34 35 36 37 38 39 40 41 42 43 44 45 46 47 48 49 50
000
ASUS41 KCLE 232110
RWRCLE
OHIO REGIONAL WEATHER ROUNDUP
NATIONAL WEATHER SERVICE CLEVELAND, OH
500 PM EDT TUE SEP 23 2014

NOTE: "FAIR" INDICATES FEW OR NO CLOUDS BELOW 12,000 FEET WITH NO
SIGNIFICANT WEATHER AND/OR OBSTRUCTIONS TO VISIBILITY.

OHZ001>008-015>018-024>027-034-035-043-044-232200-
   NORTHWEST OHIO

CITY           SKY/WX    TMP DP  RH WIND       PRES   REMARKS
DEFIANCE       SUNNY    N/A N/A N/A CALM      30.31F
FINDLAY        SUNNY     73  44  35 N3        30.30F
TOLEDO EXPRESS SUNNY     70  45  40 VRB3      30.31F
TOLEDO EXEC    SUNNY     71  42  35 CALM      30.31F
LIMA           SUNNY     72  47  40 CALM      30.31F
$$

OHZ009>014-019>023-028>033-038-089-232200-
   NORTHEAST OHIO

CITY           SKY/WX    TMP DP  RH WIND       PRES   REMARKS
CLE-HOPKINS    SUNNY     67  51  56 N8        30.35S
CLE-LAKEFRONT  SUNNY     65  51  60 N8        30.34S
CUY CO. ARPT   SUNNY     68  54  60 N9        30.35S
LORAIN-ELYRIA  SUNNY     71  48  43 S6        30.33F
ASHTABULA      SUNNY     66  52  60 N6        30.36R
AKRON-CANTON   SUNNY     68  41  37 SW5       30.34F
WOOSTER        SUNNY     69  44  40 CALM      30.34F
MANSFIELD      SUNNY     69  44  40 CALM      30.33F
YOUNGSTOWN     SUNNY     67  45  45 W5        30.34F
$$

OHZ042-051>053-060>062-070>072-077>081-232200-
  SOUTHWEST OHIO

CITY           SKY/WX    TMP DP  RH WIND       PRES   REMARKS
CINC-COVINGTON SUNNY     73  42  32 NE7       30.28F
CINC-LUNKEN    SUNNY     74  44  34 N6        30.28F
HAMILTON       SUNNY     72  46  39 E8        30.30F
DAYTON         SUNNY     72  43  35 CALM      30.31F
WRIGHT-PAT AFB SUNNY     73  42  32 N3        30.30F
DAYTON GENERAL SUNNY     71  43  36 CALM      30.30F
WILMINGTON     SUNNY     71  38  29 NE6       30.30F
$$

OHZ036-037-039>041-045>050-054>059-063>069-073>076-082>088-232200-
  CENTRAL AND SOUTHEAST OHIO

CITY           SKY/WX    TMP DP  RH WIND       PRES   REMARKS
COLUMBUS       SUNNY     74  41  30 N6        30.31F
OSU AIRPORT    SUNNY     70  42  36 CALM      30.31F
BOLTON FIELD   SUNNY     70  45  40 CALM      30.31S
RICKENBACK AFB SUNNY     71  40  33 NE7       30.30S
NEWARK         SUNNY     70  40  33 NE5       30.31F
MARION         SUNNY     70  42  36 CALM      30.32F
LANCASTER      SUNNY     73  40  30 VRB5      30.31F
ZANESVILLE     SUNNY     70  39  32 E6        30.31F
NEW PHILLY     SUNNY     69  45  41 SE3       30.33F
$$



USA.gov is the U.S. government's official web portal to all federal, state and local government web resources and services.